QPF
0.00 0.00 0.00 0.00 0.00 0.00 0.01 0.02 0.03 0.03 0.03 0.03 0.03 0.03 0.04 0.04 0.05 0.05 0.05 0.06 0.05 0.04 0.07 0.04 0.05 0.05 0.05 0.06 0.06 0.06 0.06 0.06 0.06 0.06 0.06 0.04 0.04 0.05 0.05 0.06 0.06 0.04 0.03
0.00 0.00 0.00 0.00 0.00 0.00 0.00 0.01 0.02 0.02 0.02 0.03 0.03 0.03 0.02 0.02 0.03 0.03 0.04 0.04 0.06 0.05 0.05 0.06 0.05 0.06 0.07 0.07 0.07 0.08 0.06 0.05 0.06 0.08 0.08 0.05 0.05 0.04 0.03 0.04 0.04 0.04 0.03
0.00 0.00 0.00 0.00 0.00 0.00 0.00 0.00 0.01 0.02 0.02 0.02 0.02 0.01 0.02 0.02 0.03 0.04 0.05 0.04 0.04 0.03 0.05 0.07 0.08 0.09 0.08 0.08 0.08 0.08 0.07 0.07 0.05 0.06 0.08 0.08 0.07 0.06 0.05 0.03 0.03 0.02 0.02
0.00 0.00 0.00 0.00 0.00 0.00 0.00 0.00 0.01 0.01 0.01 0.01 0.02 0.02 0.01 0.02 0.03 0.03 0.03 0.03 0.03 0.03 0.04 0.05 0.07 0.08 0.08 0.07 0.06 0.06 0.07 0.07 0.05 0.05 0.06 0.07 0.07 0.06 0.06 0.03 0.03 0.02 0.02
0.00 0.00 0.00 0.00 0.00 0.00 0.00 0.00 0.00 0.01 0.01 0.01 0.02 0.02 0.02 0.02 0.02 0.03 0.04 0.04 0.03 0.04 0.03 0.04 0.06 0.07 0.09 0.09 0.06 0.06 0.07 0.06 0.07 0.07 0.06 0.05 0.04 0.04 0.05 0.05 0.03 0.03 0.03
0.00 0.00 0.00 0.00 0.00 0.00 0.00 0.00 0.00 0.01 0.01 0.01 0.02 0.02 0.02 0.02 0.03 0.04 0.05 0.05 0.05 0.05 0.04 0.04 0.05 0.05 0.06 0.06 0.06 0.07 0.09 0.08 0.09 0.08 0.06 0.05 0.05 0.05 0.05 0.06 0.05 0.04 0.03
0.00 0.00 0.00 0.00 0.00 0.00 0.00 0.00 0.01 0.01 0.01 0.01 0.01 0.01 0.02 0.03 0.05 0.05 0.05 0.04 0.04 0.05 0.05 0.03 0.04 0.05 0.05 0.03 0.04 0.06 0.07 0.06 0.08 0.11 0.08 0.06 0.06 0.05 0.05 0.06 0.05 0.04 0.03
0.00 0.00 0.00 0.00 0.00 0.00 0.00 0.00 0.01 0.01 0.01 0.02 0.03 0.03 0.03 0.06 0.11 0.11 0.09 0.05 0.04 0.04 0.03 0.03 0.04 0.03 0.03 0.03 0.05 0.05 0.05 0.04 0.05 0.05 0.08 0.09 0.07 0.05 0.05 0.05 0.06 0.05 0.04
0.00 0.00 0.00 0.00 0.00 0.00 0.00 0.00 0.01 0.01 0.02 0.03 0.03 0.04 0.04 0.04 0.06 0.10 0.11 0.06 0.05 0.04 0.04 0.04 0.06 0.05 0.04 0.04 0.05 0.05 0.04 0.04 0.05 0.05 0.05 0.07 0.08 0.06 0.05 0.06 0.09 0.09 0.08
0.00 0.00 0.00 0.00 0.00 0.00 0.00 0.00 0.00 0.01 0.01 0.02 0.02 0.02 0.03 0.03 0.04 0.04 0.05 0.05 0.05 0.04 0.04 0.03 0.03 0.03 0.03 0.03 0.03 0.04 0.05 0.05 0.05 0.05 0.04 0.04 0.05 0.05 0.04 0.04 0.06 0.07 0.09
0.00 0.00 0.00 0.00 0.00 0.00 0.00 0.00 0.00 0.00 0.01 0.01 0.02 0.02 0.02 0.01 0.02 0.03 0.03 0.03 0.03 0.03 0.02 0.01 0.02 0.01 0.02 0.02 0.03 0.03 0.04 0.05 0.04 0.03 0.03 0.04 0.03 0.04 0.04 0.04 0.05 0.06 0.06
0.00 0.00 0.00 0.00 0.00 0.00 0.00 0.00 0.00 0.00 0.01 0.01 0.02 0.02 0.01 0.01 0.01 0.02 0.02 0.03 0.03 0.02 0.01 0.01 0.02 0.01 0.01 0.02 0.02 0.02 0.02 0.05 0.07 0.05 0.04 0.04 0.04 0.04 0.04 0.04 0.04 0.04 0.05
0.00 0.00 0.00 0.01 0.00 0.00 0.00 0.01 0.01 0.01 0.01 0.02 0.03 0.03 0.02 0.02 0.01 0.01 0.01 0.02 0.02 0.02 0.01 0.01 0.02 0.02 0.02 0.02 0.02 0.02 0.02 0.02 0.03 0.04 0.04 0.04 0.03 0.04 0.04 0.03 0.03 0.03 0.03
0.00 0.00 0.00 0.00 0.00 0.00 0.00 0.01 0.01 0.01 0.00 0.01 0.01 0.02 0.03 0.03 0.03 0.03 0.03 0.02 0.02 0.02 0.02 0.02 0.02 0.02 0.01 0.01 0.02 0.02 0.02 0.02 0.02 0.02 0.03 0.04 0.03 0.03 0.03 0.03 0.03 0.03 0.03
0.01 0.01 0.01 0.01 0.01 0.01 0.01 0.01 0.00 0.00 0.00 0.01 0.02 0.04 0.05 0.06 0.06 0.06 0.05 0.04 0.02 0.01 0.01 0.02 0.02 0.02 0.01 0.01 0.02 0.02 0.01 0.02 0.02 0.02 0.02 0.02 0.02 0.02 0.02 0.02 0.02 0.03 0.03
0.01 0.01 0.00 0.00 0.01 0.01 0.00 0.00 0.00 0.01 0.01 0.01 0.02 0.03 0.04 0.05 0.05 0.06 0.06 0.04 0.02 0.02 0.02 0.02 0.02 0.01 0.01 0.01 0.02 0.02 0.02 0.01 0.01 0.01 0.01 0.01 0.01 0.01 0.02 0.03 0.03 0.04 0.04
0.01 0.00 0.01 0.00 0.00 0.00 0.00 0.00 0.01 0.01 0.02 0.02 0.03 0.03 0.02 0.03 0.03 0.04 0.04 0.05 0.04 0.03 0.02 0.02 0.01 0.01 0.01 0.01 0.01 0.01 0.01 0.01 0.00 0.00 0.00 0.01 0.01 0.02 0.03 0.03 0.03 0.03 0.03
0.00 0.00 0.00 0.00 0.00 0.00 0.00 0.00 0.01 0.02 0.03 0.03 0.04 0.03 0.02 0.03 0.03 0.04 0.05 0.05 0.04 0.04 0.03 0.02 0.02 0.01 0.00 0.01 0.01 0.01 0.00 0.00 0.00 0.01 0.01 0.01 0.02 0.03 0.04 0.03 0.03 0.03 0.03
0.00 0.00 0.00 0.00 0.01 0.00 0.00 0.01 0.01 0.01 0.01 0.02 0.03 0.02 0.02 0.03 0.04 0.05 0.07 0.07 0.06 0.06 0.04 0.03 0.02 0.01 0.00 0.00 0.00 0.00 0.00 0.00 0.00 0.01 0.02 0.02 0.02 0.02 0.03 0.04 0.04 0.03 0.03
0.00 0.00 0.00 0.00 0.00 0.00 0.00 0.01 0.02 0.02 0.01 0.01 0.02 0.02 0.02 0.03 0.08 0.08 0.07 0.06 0.06 0.05 0.03 0.02 0.02 0.02 0.01 0.01 0.01 0.01 0.01 0.01 0.02 0.02 0.03 0.02 0.02 0.02 0.02 0.03 0.04 0.04 0.04
0.00 0.00 0.00 0.01 0.01 0.01 0.02 0.02 0.01 0.01 0.01 0.01 0.01 0.01 0.01 0.03 0.06 0.05 0.04 0.05 0.05 0.04 0.03 0.03 0.03 0.03 0.03 0.03 0.03 0.02 0.02 0.02 0.02 0.02 0.02 0.03 0.03 0.03 0.02 0.02 0.03 0.03 0.02
0.01 0.01 0.01 0.01 0.01 0.01 0.01 0.01 0.01 0.01 0.01 0.01 0.01 0.01 0.01 0.02 0.03 0.03 0.04 0.05 0.05 0.05 0.05 0.05 0.05 0.04 0.05 0.04 0.03 0.02 0.02 0.03 0.03 0.04 0.05 0.05 0.05 0.04 0.02 0.01 0.01 0.01 0.01
0.01 0.01 0.01 0.01 0.01 0.01 0.01 0.01 0.01 0.01 0.02 0.02 0.01 0.01 0.01 0.01 0.01 0.02 0.05 0.05 0.04 0.04 0.05 0.04 0.04 0.03 0.03 0.03 0.02 0.03 0.04 0.05 0.06 0.06 0.07 0.07 0.06 0.04 0.03 0.02 0.02 0.01 0.01
0.03 0.02 0.01 0.01 0.02 0.02 0.03 0.03 0.02 0.02 0.02 0.01 0.01 0.01 0.01 0.01 0.01 0.01 0.03 0.04 0.03 0.03 0.03 0.03 0.03 0.03 0.03 0.03 0.02 0.03 0.04 0.04 0.04 0.04 0.04 0.03 0.03 0.02 0.02 0.02 0.02 0.02 0.02
0.03 0.02 0.01 0.01 0.01 0.01 0.02 0.01 0.01 0.01 0.02 0.02 0.02 0.01 0.01 0.01 0.01 0.02 0.02 0.03 0.02 0.03 0.03 0.02 0.03 0.03 0.03 0.03 0.02 0.01 0.01 0.02 0.02 0.02 0.02 0.02 0.02 0.02 0.02 0.02 0.02 0.02 0.02
0.02 0.01 0.01 0.01 0.01 0.01 0.01 0.01 0.01 0.01 0.01 0.01 0.02 0.01 0.01 0.00 0.01 0.01 0.02 0.03 0.03 0.03 0.04 0.04 0.03 0.03 0.03 0.03 0.01 0.01 0.01 0.01 0.02 0.02 0.02 0.03 0.03 0.02 0.01 0.01 0.01 0.02 0.02
MSLP
1014.84 1015.03 1015.20 1015.34 1015.44 1015.51 1015.56 1015.60 1015.65 1015.71 1015.77 1015.82 1015.87 1015.88 1015.87 1015.83 1015.76 1015.67 1015.57 1015.47 1015.37 1015.29 1015.22 1015.18 1015.17 1015.19 1015.23 1015.30 1015.37 1015.44 1015.48 1015.47 1015.39 1015.25 1015.02 1014.74 1014.41 1014.07 1013.74 1013.45 1013.23 1013.08 1013.01
1014.55 1014.84 1015.11 1015.32 1015.48 1015.59 1015.65 1015.70 1015.73 1015.78 1015.83 1015.88 1015.92 1015.94 1015.92 1015.86 1015.75 1015.60 1015.44 1015.27 1015.12 1014.99 1014.90 1014.85 1014.85 1014.89 1014.96 1015.05 1015.14 1015.22 1015.27 1015.26 1015.20 1015.07 1014.87 1014.61 1014.32 1014.00 1013.68 1013.38 1013.13 1012.93 1012.79
1014.20 1014.57 1014.93 1015.23 1015.45 1015.60 1015.69 1015.73 1015.76 1015.79 1015.82 1015.87 1015.90 1015.91 1015.88 1015.79 1015.65 1015.46 1015.24 1015.02 1014.81 1014.64 1014.53 1014.47 1014.48 1014.53 1014.61 1014.71 1014.80 1014.88 1014.93 1014.93 1014.88 1014.78 1014.62 1014.41 1014.17 1013.90 1013.62 1013.34 1013.09 1012.87 1012.69
1013.76 1014.18 1014.61 1014.97 1015.25 1015.44 1015.55 1015.60 1015.62 1015.64 1015.67 1015.70 1015.74 1015.74 1015.70 1015.60 1015.44 1015.22 1014.97 1014.70 1014.46 1014.27 1014.13 1014.06 1014.06 1014.10 1014.18 1014.27 1014.36 1014.44 1014.48 1014.48 1014.45 1014.38 1014.26 1014.12 1013.94 1013.74 1013.52 1013.29 1013.06 1012.84 1012.64
1013.22 1013.67 1014.13 1014.53 1014.85 1015.07 1015.19 1015.25 1015.27 1015.29 1015.31 1015.35 1015.39 1015.40 1015.37 1015.28 1015.11 1014.89 1014.62 1014.35 1014.09 1013.87 1013.71 1013.63 1013.61 1013.63 1013.70 1013.77 1013.84 1013.90 1013.93 1013.94 1013.92 1013.88 1013.82 1013.73 1013.63 1013.50 1013.35 1013.18 1013.00 1012.81 1012.62
1012.67 1013.10 1013.54 1013.95 1014.28 1014.51 1014.64 1014.70 1014.73 1014.75 1014.78 1014.83 1014.88 1014.91 1014.90 1014.83 1014.69 1014.48 1014.22 1013.95 1013.68 1013.46 1013.29 1013.18 1013.14 1013.15 1013.18 1013.23 1013.27 1013.31 1013.33 1013.33 1013.32 1013.31 1013.29 1013.26 1013.23 1013.18 1013.10 1013.00 1012.87 1012.73 1012.57
1012.22 1012.58 1012.98 1013.36 1013.67 1013.88 1014.01 1014.06 1014.09 1014.11 1014.15 1014.21 1014.27 1014.33 1014.35 1014.30 1014.19 1014.01 1013.78 1013.52 1013.26 1013.04 1012.86 1012.74 1012.68 1012.65 1012.65 1012.67 1012.68 1012.68 1012.68 1012.68 1012.67 1012.68 1012.70 1012.72 1012.74 1012.75 1012.75 1012.71 1012.65 1012.57 1012.46
1012.00 1012.28 1012.61 1012.92 1013.18 1013.35 1013.45 1013.49 1013.50 1013.51 1013.54 1013.60 1013.67 1013.74 1013.78 1013.76 1013.67 1013.51 1013.31 1013.07 1012.83 1012.61 1012.43 1012.30 1012.21 1012.15 1012.12 1012.10 1012.08 1012.05 1012.02 1012.00 1011.99 1012.01 1012.05 1012.10 1012.17 1012.24 1012.29 1012.33 1012.33 1012.31 1012.28
1012.16 1012.34 1012.58 1012.80 1012.98 1013.09 1013.14 1013.13 1013.11 1013.09 1013.10 1013.14 1013.19 1013.25 1013.27 1013.25 1013.17 1013.03 1012.84 1012.62 1012.39 1012.18 1012.00 1011.85 1011.74 1011.66 1011.60 1011.54 1011.48 1011.42 1011.36 1011.32 1011.30 1011.31 1011.36 1011.43 1011.53 1011.64 1011.75 1011.84 1011.91 1011.97 1012.01
1012.76 1012.85 1012.98 1013.10 1013.18 1013.21 1013.18 1013.11 1013.03 1012.96 1012.91 1012.90 1012.90 1012.91 1012.90 1012.85 1012.75 1012.60 1012.40 1012.19 1011.96 1011.75 1011.57 1011.42 1011.29 1011.18 1011.09 1011.00 1010.90 1010.80 1010.72 1010.65 1010.60 1010.60 1010.64 1010.72 1010.84 1010.98 1011.13 1011.27 1011.41 1011.53 1011.65
1013.79 1013.79 1013.82 1013.83 1013.80 1013.72 1013.60 1013.44 1013.28 1013.14 1013.01 1012.92 1012.84 1012.77 1012.69 1012.58 1012.42 1012.24 1012.02 1011.79 1011.56 1011.35 1011.16 1011.00 1010.86 1010.74 1010.61 1010.49 1010.36 1010.22 1010.10 1010.00 1009.93 1009.90 1009.92 1010.00 1010.12 1010.27 1010.45 1010.64 1010.83 1011.02 1011.21
1015.09 1015.02 1014.95 1014.85 1014.70 1014.52 1014.29 1014.04 1013.79 1013.55 1013.34 1013.14 1012.97 1012.80 1012.62 1012.42 1012.20 1011.96 1011.70 1011.45 1011.20 1010.98 1010.78 1010.62 1010.46 1010.32 1010.18 1010.02 1009.86 1009.69 1009.53 1009.38 1009.28 1009.22 1009.22 1009.28 1009.39 1009.55 1009.74 1009.97 1010.20 1010.44 1010.69
1016.47 1016.34 1016.18 1015.97 1015.71 1015.41 1015.09 1014.74 1014.40 1014.08 1013.77 1013.48 1013.20 1012.93 1012.65 1012.36 1012.06 1011.75 1011.44 1011.15 1010.89 1010.65 1010.45 1010.27 1010.11 1009.95 1009.78 1009.60 1009.40 1009.19 1008.99 1008.81 1008.66 1008.57 1008.54 1008.57 1008.66 1008.82 1009.02 1009.26 1009.52 1009.81 1010.10
1017.71 1017.52 1017.27 1016.97 1016.61 1016.21 1015.80 1015.38 1014.96 1014.56 1014.18 1013.81 1013.44 1013.08 1012.71 1012.33 1011.95 1011.58 1011.23 1010.90 1010.61 1010.36 1010.14 1009.95 1009.78 1009.60 1009.40 1009.19 1008.96 1008.72 1008.48 1008.25 1008.07 1007.93 1007.86 1007.87 1007.94 1008.08 1008.28 1008.53 1008.81 1009.11 1009.43
1018.64 1018.39 1018.07 1017.67 1017.23 1016.75 1016.27 1015.79 1015.33 1014.88 1014.45 1014.02 1013.60 1013.17 1012.74 1012.29 1011.85 1011.42 1011.02 1010.66 1010.34 1010.07 1009.84 1009.63 1009.43 1009.23 1009.01 1008.77 1008.50 1008.22 1007.94 1007.68 1007.46 1007.29 1007.19 1007.16 1007.21 1007.33 1007.52 1007.76 1008.05 1008.36 1008.70
1019.16 1018.86 1018.46 1018.00 1017.49 1016.96 1016.44 1015.93 1015.45 1014.98 1014.54 1014.09 1013.64 1013.17 1012.69 1012.20 1011.71 1011.24 1010.80 1010.40 1010.05 1009.75 1009.49 1009.26 1009.03 1008.80 1008.55 1008.27 1007.97 1007.66 1007.34 1007.05 1006.80 1006.60 1006.48 1006.43 1006.46 1006.57 1006.74 1006.98 1007.26 1007.58 1007.92
1019.29 1018.94 1018.49 1017.97 1017.42 1016.86 1016.32 1015.81 1015.34 1014.89 1014.45 1014.00 1013.55 1013.07 1012.56 1012.04 1011.52 1011.01 1010.53 1010.09 1009.70 1009.36 1009.05 1008.78 1008.52 1008.25 1007.96 1007.64 1007.31 1006.97 1006.63 1006.32 1006.05 1005.85 1005.71 1005.66 1005.68 1005.79 1005.96 1006.20 1006.48 1006.79 1007.13
1019.12 1018.73 1018.24 1017.69 1017.12 1016.56 1016.03 1015.54 1015.09 1014.66 1014.25 1013.82 1013.37 1012.88 1012.36 1011.81 1011.25 1010.70 1010.17 1009.67 1009.23 1008.84 1008.48 1008.16 1007.85 1007.53 1007.20 1006.86 1006.50 1006.13 1005.79 1005.47 1005.21 1005.01 1004.89 1004.85 1004.90 1005.02 1005.20 1005.45 1005.74 1006.06 1006.41
1018.82 1018.40 1017.89 1017.32 1016.75 1016.20 1015.69 1015.23 1014.81 1014.42 1014.02 1013.61 1013.16 1012.66 1012.11 1011.52 1010.91 1010.30 1009.71 1009.15 1008.64 1008.18 1007.77 1007.38 1007.01 1006.65 1006.28 1005.91 1005.53 1005.17 1004.82 1004.53 1004.29 1004.13 1004.04 1004.05 1004.13 1004.29 1004.52 1004.79 1005.10 1005.44 1005.80
1018.50 1018.07 1017.55 1016.99 1016.43 1015.91 1015.42 1014.99 1014.60 1014.22 1013.84 1013.42 1012.95 1012.42 1011.82 1011.18 1010.50 1009.82 1009.15 1008.52 1007.93 1007.40 1006.91 1006.47 1006.05 1005.65 1005.25 1004.86 1004.48 1004.12 1003.81 1003.55 1003.36 1003.25 1003.23 1003.30 1003.45 1003.67 1003.96 1004.28 1004.63 1005.00 1005.38
1018.26 1017.82 1017.31 1016.77 1016.23 1015.73 1015.27 1014.86 1014.48 1014.10 1013.70 1013.26 1012.74 1012.16 1011.49 1010.77 1010.01 1009.25 1008.49 1007.78 1007.12 1006.52 1005.97 1005.48 1005.02 1004.59 1004.18 1003.79 1003.43 1003.10 1002.82 1002.62 1002.49 1002.46 1002.52 1002.67 1002.91 1003.21 1003.57 1003.96 1004.36 1004.77 1005.18
1018.10 1017.66 1017.16 1016.64 1016.13 1015.65 1015.21 1014.81 1014.42 1014.02 1013.59 1013.09 1012.51 1011.85 1011.10 1010.30 1009.45 1008.59 1007.76 1006.97 1006.25 1005.59 1005.01 1004.48 1004.01 1003.58 1003.18 1002.81 1002.48 1002.19 1001.97 1001.83 1001.78 1001.83 1001.98 1002.22 1002.55 1002.94 1003.38 1003.83 1004.30 1004.75 1005.19
1017.96 1017.52 1017.04 1016.54 1016.05 1015.59 1015.16 1014.75 1014.35 1013.91 1013.43 1012.86 1012.21 1011.46 1010.63 1009.73 1008.80 1007.87 1006.98 1006.14 1005.37 1004.69 1004.09 1003.57 1003.11 1002.70 1002.33 1002.00 1001.72 1001.49 1001.34 1001.26 1001.29 1001.41 1001.64 1001.97 1002.38 1002.86 1003.37 1003.89 1004.41 1004.90 1005.36
1017.78 1017.34 1016.86 1016.38 1015.90 1015.45 1015.02 1014.60 1014.17 1013.70 1013.15 1012.52 1011.79 1010.96 1010.06 1009.09 1008.10 1007.12 1006.18 1005.32 1004.55 1003.87 1003.30 1002.80 1002.38 1002.02 1001.71 1001.44 1001.22 1001.05 1000.95 1000.94 1001.02 1001.22 1001.51 1001.91 1002.38 1002.92 1003.49 1004.07 1004.62 1005.14 1005.61
1017.50 1017.04 1016.56 1016.08 1015.61 1015.17 1014.73 1014.30 1013.83 1013.31 1012.72 1012.03 1011.24 1010.36 1009.39 1008.38 1007.36 1006.36 1005.43 1004.58 1003.83 1003.20 1002.67 1002.24 1001.88 1001.59 1001.34 1001.14 1000.97 1000.86 1000.81 1000.85 1000.98 1001.21 1001.55 1001.98 1002.50 1003.07 1003.68 1004.28 1004.86 1005.38 1005.85
1017.08 1016.60 1016.11 1015.63 1015.16 1014.71 1014.27 1013.82 1013.33 1012.78 1012.14 1011.42 1010.59 1009.67 1008.69 1007.67 1006.65 1005.67 1004.76 1003.96 1003.27 1002.70 1002.25 1001.89 1001.61 1001.39 1001.21 1001.07 1000.96 1000.89 1000.88 1000.94 1001.09 1001.34 1001.68 1002.13 1002.66 1003.24 1003.85 1004.46 1005.03 1005.55 1006.00
Thickness
5800 5797 5794 5791 5786 5782 5778 5774 5772 5769 5767 5766 5764 5762 5760 5761 5760 5759 5757 5757 5756 5756 5755 5756 5753 5753 5752 5751 5751 5749 5746 5745 5745 5743 5741 5742 5745 5744 5743 5742 5741 5740 5738
5801 5798 5795 5793 5789 5784 5780 5777 5774 5772 5770 5768 5766 5764 5763 5763 5763 5762 5758 5758 5757 5756 5757 5754 5754 5754 5752 5750 5749 5748 5746 5746 5746 5742 5738 5735 5736 5738 5741 5740 5738 5737 5736
5805 5801 5798 5795 5792 5788 5784 5782 5778 5775 5773 5771 5770 5767 5764 5764 5764 5761 5760 5759 5758 5758 5756 5755 5755 5754 5754 5752 5750 5748 5746 5745 5746 5747 5742 5735 5732 5733 5736 5736 5736 5734 5733
5813 5808 5804 5799 5797 5793 5790 5786 5781 5778 5776 5774 5772 5769 5766 5763 5763 5763 5762 5761 5760 5759 5758 5756 5755 5754 5754 5752 5751 5751 5749 5745 5745 5745 5745 5744 5741 5734 5730 5732 5732 5731 5730
5819 5813 5810 5805 5802 5799 5795 5790 5785 5781 5778 5777 5774 5771 5769 5768 5768 5766 5763 5762 5762 5760 5759 5757 5756 5754 5754 5752 5751 5749 5748 5747 5746 5745 5744 5742 5740 5739 5732 5726 5726 5727 5727
5823 5819 5815 5810 5805 5803 5798 5793 5786 5782 5781 5778 5777 5773 5771 5769 5767 5765 5764 5763 5763 5762 5760 5758 5757 5756 5754 5753 5751 5749 5748 5747 5745 5745 5744 5742 5740 5737 5735 5729 5725 5723 5724
5824 5819 5815 5810 5806 5803 5800 5796 5789 5784 5782 5781 5779 5776 5774 5771 5768 5767 5766 5765 5765 5763 5760 5760 5757 5756 5754 5753 5752 5750 5748 5747 5745 5743 5743 5743 5742 5741 5737 5732 5728 5724 5722
5826 5821 5817 5813 5809 5805 5801 5797 5791 5787 5785 5783 5781 5779 5777 5775 5774 5771 5771 5769 5767 5766 5763 5760 5758 5756 5755 5754 5752 5751 5749 5747 5744 5744 5742 5741 5741 5740 5737 5733 5728 5722 5720
5827 5823 5820 5817 5812 5808 5804 5800 5795 5791 5788 5786 5783 5781 5779 5777 5776 5773 5772 5771 5768 5767 5764 5761 5759 5757 5755 5753 5751 5749 5747 5745 5744 5743 5742 5740 5740 5738 5737 5734 5730 5724 5717
5827 5825 5822 5819 5816 5812 5808 5803 5798 5793 5791 5788 5786 5784 5781 5778 5776 5775 5773 5771 5769 5766 5763 5761 5759 5757 5754 5753 5750 5749 5746 5744 5742 5741 5739 5738 5739 5737 5735 5733 5730 5726 5720
5826 5825 5822 5821 5817 5814 5809 5803 5799 5795 5791 5789 5787 5785 5782 5780 5778 5775 5773 5771 5769 5766 5762 5760 5758 5756 5753 5751 5748 5747 5745 5743 5741 5740 5738 5736 5734 5733 5732 5730 5727 5724 5719
5825 5824 5822 5818 5815 5812 5809 5804 5801 5797 5793 5790 5786 5784 5781 5779 5778 5776 5773 5771 5768 5766 5763 5760 5758 5756 5753 5750 5747 5745 5744 5741 5739 5737 5735 5733 5732 5728 5728 5726 5723 5720 5716
5820 5819 5817 5814 5811 5809 5806 5804 5801 5798 5796 5791 5787 5783 5781 5778 5776 5774 5772 5770 5767 5764 5762 5759 5756 5754 5751 5749 5746 5744 5742 5739 5737 5735 5732 5730 5727 5724 5723 5720 5719 5716 5713
5813 5813 5811 5809 5808 5806 5803 5801 5799 5799 5796 5791 5787 5783 5780 5777 5775 5772 5769 5767 5765 5762 5759 5757 5754 5752 5750 5746 5744 5742 5740 5737 5735 5732 5729 5727 5724 5720 5718 5715 5713 5711 5707
5806 5806 5806 5805 5803 5801 5799 5798 5797 5796 5793 5789 5785 5782 5779 5777 5773 5769 5766 5764 5761 5759 5757 5754 5752 5751 5748 5745 5741 5739 5737 5734 5731 5728 5725 5723 5719 5715 5713 5712 5709 5705 5702
5801 5801 5800 5799 5797 5796 5795 5794 5793 5792 5789 5785 5782 5780 5776 5773 5770 5767 5764 5760 5757 5755 5754 5752 5749 5747 5746 5740 5735 5734 5734 5731 5728 5725 5722 5719 5715 5711 5707 5704 5701 5699 5697
5796 5796 5795 5795 5794 5793 5792 5790 5789 5788 5784 5780 5778 5776 5773 5770 5767 5765 5761 5757 5755 5753 5751 5748 5745 5743 5740 5735 5731 5728 5728 5727 5725 5722 5718 5717 5713 5708 5705 5700 5695 5693 5690
5790 5791 5791 5792 5792 5791 5790 5787 5786 5782 5778 5775 5773 5771 5769 5766 5764 5760 5757 5755 5752 5749 5747 5744 5742 5740 5737 5731 5727 5724 5724 5723 5720 5717 5714 5711 5707 5704 5699 5697 5694 5691 5687
5785 5786 5787 5788 5787 5786 5784 5781 5779 5776 5773 5770 5768 5766 5764 5761 5759 5756 5754 5751 5748 5745 5744 5741 5738 5736 5732 5726 5722 5718 5719 5718 5715 5713 5709 5706 5702 5695 5691 5690 5688 5685 5682
5779 5780 5781 5781 5779 5779 5778 5773 5770 5769 5766 5765 5764 5761 5758 5755 5753 5751 5749 5747 5745 5741 5739 5737 5735 5732 5728 5721 5717 5712 5715 5713 5710 5707 5704 5698 5695 5689 5684 5684 5681 5678 5676
5772 5773 5772 5771 5771 5771 5769 5764 5762 5760 5760 5759 5757 5754 5752 5748 5746 5745 5743 5741 5739 5736 5733 5731 5729 5727 5723 5716 5712 5707 5709 5708 5706 5704 5701 5696 5687 5682 5677 5676 5675 5672 5669
5763 5763 5761 5761 5762 5762 5759 5756 5754 5754 5753 5750 5747 5745 5744 5743 5741 5738 5736 5734 5732 5729 5726 5723 5722 5720 5717 5713 5707 5702 5700 5700 5699 5697 5695 5689 5680 5674 5670 5668 5666 5663 5660
5752 5753 5751 5751 5751 5751 5750 5747 5746 5746 5743 5739 5737 5735 5734 5733 5732 5731 5729 5727 5725 5724 5721 5720 5717 5715 5714 5709 5702 5696 5693 5690 5690 5689 5684 5678 5671 5667 5663 5659 5656 5654 5655
5742 5742 5741 5740 5740 5741 5740 5739 5738 5736 5733 5730 5728 5726 5724 5724 5723 5722 5722 5721 5720 5718 5717 5715 5712 5709 5707 5705 5699 5694 5689 5683 5682 5680 5675 5669 5664 5660 5657 5654 5651 5650 5651
5732 5732 5730 5729 5729 5730 5729 5729 5728 5727 5724 5722 5720 5718 5717 5716 5714 5713 5712 5712 5713 5712 5709 5708 5707 5703 5700 5697 5691 5689 5685 5682 5678 5673 5670 5666 5662 5657 5654 5652 5650 5647 5645
5720 5720 5720 5720 5720 5719 5719 5719 5719 5717 5714 5713 5712 5712 5710 5708 5707 5705 5704 5702 5701 5700 5698 5697 5696 5696 5691 5685 5681 5677 5673 5669 5665 5663 5664 5661 5657 5654 5651 5648 5644 5641 5638